Date,TemperatureHighF,TemperatureAvgF,TemperatureLowF,DewpointHighF,DewpointAvgF,DewpointLowF,HumidityHigh,HumidityAvg,HumidityLow,PressureMaxIn,PressureMinIn,WindSpeedMaxMPH,WindSpeedAvgMPH,GustSpeedMaxMPH,PrecipitationSumIn
2013-1-1,34,18,-3,-100,-100,-100,0,0,100,0.00,40.00,0,-999,0,0.01
2013-1-2,37,27,19,-100,-100,-100,0,0,100,0.00,40.00,0,-999,0,0.01
2013-1-3,30,24,19,-100,-100,-100,0,0,100,0.00,40.00,0,-999,0,0.00
2013-1-4,42,26,13,-100,-100,-100,0,0,100,0.00,40.00,0,-999,0,0.00
2013-1-5,49,26,5,-100,-100,-100,0,0,100,0.00,40.00,0,-999,0,0.00
2013-1-6,42,27,17,-100,-100,-100,0,0,100,0.00,40.00,0,-999,0,0.00
2013-1-7,40,29,21,-100,-100,-100,0,0,100,0.00,40.00,0,-999,0,0.00
2013-1-8,51,35,17,-100,-100,-100,0,0,100,0.00,40.00,0,-999,0,0.00
2013-1-9,52,37,25,-100,-100,-100,0,0,100,0.00,40.00,0,-999,0,0.01
2013-1-10,40,33,25,-100,-100,-100,0,0,100,0.00,40.00,0,-999,0,0.01
2013-1-11,26,17,6,-100,-100,-100,0,0,100,0.00,40.00,0,-999,0,0.01
2013-1-12,22,7,-10,-100,-100,-100,0,0,100,0.00,40.00,0,-999,0,0.00
2013-1-13,24,7,-11,-100,-100,-100,0,0,100,0.00,40.00,0,-999,0,0.01
2013-1-14,21,9,-3,-100,-100,-100,0,0,100,0.00,40.00,0,-999,0,0.01
2013-1-15,32,13,-8,-100,-100,-100,0,0,100,0.00,40.00,0,-999,0,0.01
2013-1-16,43,29,16,-100,-100,-100,0,0,100,0.00,40.00,0,-999,0,0.00
2013-1-17,42,33,28,-100,-100,-100,0,0,100,0.00,40.00,0,-999,0,0.00
2013-1-18,49,34,24,-100,-100,-100,0,0,100,0.00,40.00,0,-999,0,0.00
2013-1-19,47,34,27,-100,-100,-100,0,0,100,0.00,40.00,0,-999,0,0.00
2013-1-20,53,36,23,-100,-100,-100,0,0,100,0.00,40.00,0,-999,0,0.00
2013-1-21,48,39,33,-100,-100,-100,0,0,100,0.00,40.00,0,-999,0,0.00
2013-1-22,55,40,27,-100,-100,-100,0,0,100,0.00,40.00,0,-999,0,0.00
2013-1-23,53,37,23,-100,-100,-100,0,0,100,0.00,40.00,0,-999,0,0.00
2013-1-24,45,38,35,-100,-100,-100,0,0,100,0.00,40.00,0,-999,0,0.01
2013-1-25,49,41,36,-100,-100,-100,0,0,100,0.00,40.00,0,-999,0,0.01
2013-1-26,42,40,39,-100,-100,-100,0,0,100,0.00,40.00,0,-999,0,0.10
2013-1-27,41,38,35,-100,-100,-100,0,0,100,0.00,40.00,0,-999,0,0.05
2013-1-28,34,29,20,-100,-100,-100,0,0,100,0.00,40.00,0,-999,0,0.01
2013-1-29,30,22,13,-100,-100,-100,0,0,100,0.00,40.00,0,-999,0,0.00
2013-1-30,42,29,14,-100,-100,-100,0,0,100,0.00,40.00,0,-999,0,0.00
2013-1-31,49,38,22,-100,-100,-100,0,0,100,0.00,40.00,0,-999,0,0.00
2013-2-1,53,36,21,-100,-100,-100,0,0,100,0.00,40.00,0,-999,0,0.00
2013-2-2,53,40,27,-100,-100,-100,0,0,100,0.00,40.00,0,-999,0,0.00
2013-2-3,44,38,33,-100,-100,-100,0,0,100,0.00,40.00,0,-999,0,0.00
2013-2-4,51,38,30,-100,-100,-100,0,0,100,0.00,40.00,0,-999,0,0.00
2013-2-5,54,37,25,-100,-100,-100,0,0,100,0.00,40.00,0,-999,0,0.00
2013-2-6,48,36,29,-100,-100,-100,0,0,100,0.00,40.00,0,-999,0,0.00
2013-2-7,48,34,24,-100,-100,-100,0,0,100,0.00,40.00,0,-999,0,0.00
2013-2-8,39,34,27,-100,-100,-100,0,0,100,0.00,40.00,0,-999,0,0.00
2013-2-9,27,24,21,-100,-100,-100,0,0,100,0.00,40.00,0,-999,0,0.02
2013-2-10,27,23,14,-100,-100,-100,0,0,100,0.00,40.00,0,-999,0,0.02
2013-2-11,31,14,1,-100,-100,-100,0,0,100,0.00,40.00,0,-999,0,0.01
2013-2-12,38,22,3,-100,-100,-100,0,0,100,0.00,40.00,0,-999,0,0.01
2013-2-13,45,27,10,-100,-100,-100,0,0,100,0.00,40.00,0,-999,0,0.00
2013-2-14,45,31,15,-100,-100,-100,0,0,100,0.00,40.00,0,-999,0,0.01
2013-2-15,49,37,27,-100,-100,-100,0,0,100,0.00,40.00,0,-999,0,0.00
2013-2-16,54,40,27,-100,-100,-100,0,0,100,0.00,40.00,0,-999,0,0.00
2013-2-17,49,36,24,-100,-100,-100,0,0,100,0.00,40.00,0,-999,0,0.00
2013-2-18,48,32,19,-100,-100,-100,0,0,100,0.00,40.00,0,-999,0,0.00
2013-2-19,44,33,22,-100,-100,-100,0,0,100,0.00,40.00,0,-999,0,0.00
2013-2-20,32,27,20,-100,-100,-100,0,0,100,0.00,40.00,0,-999,0,0.01
2013-2-21,30,25,19,-100,-100,-100,0,0,100,0.00,40.00,0,-999,0,0.01
2013-2-22,36,24,9,-100,-100,-100,0,0,100,0.00,40.00,0,-999,0,0.01
2013-2-23,40,27,12,-100,-100,-100,0,0,100,0.00,40.00,0,-999,0,0.00
2013-2-24,30,24,17,-100,-100,-100,0,0,100,0.00,40.00,0,-999,0,0.00
2013-2-25,44,32,13,-100,-100,-100,0,0,100,0.00,40.00,0,-999,0,0.00
2013-2-26,39,31,25,-100,-100,-100,0,0,100,0.00,40.00,0,-999,0,0.00
2013-2-27,41,29,19,-100,-100,-100,0,0,100,0.00,40.00,0,-999,0,0.00
2013-2-28,48,34,24,-100,-100,-100,0,0,100,0.00,40.00,0,-999,0,0.00
2013-3-1,56,40,26,-100,-100,-100,0,0,100,0.00,40.00,0,-999,0,0.00
2013-3-2,60,45,32,-100,-100,-100,0,0,100,0.00,40.00,0,-999,0,0.00
2013-3-3,50,41,30,-100,-100,-100,0,0,100,0.00,40.00,0,-999,0,0.01
2013-3-4,52,41,29,-100,-100,-100,0,0,100,0.00,40.00,0,-999,0,0.00
2013-3-5,51,38,26,-100,-100,-100,0,0,100,0.00,40.00,0,-999,0,0.00
2013-3-6,53,41,31,-100,-100,-100,0,0,100,0.00,40.00,0,-999,0,0.00
2013-3-7,51,39,28,-100,-100,-100,0,0,100,0.00,40.00,0,-999,0,0.00
2013-3-8,40,33,24,-100,-100,-100,0,0,100,0.00,40.00,0,-999,0,0.05
2013-3-9,32,28,25,-100,-100,-100,0,0,100,0.00,40.00,0,-999,0,0.02
2013-3-10,45,34,24,-100,-100,-100,0,0,100,0.00,40.00,0,-999,0,0.01
2013-3-11,54,36,19,-100,-100,-100,0,0,100,0.00,40.00,0,-999,0,0.00
2013-3-12,57,41,28,-100,-100,-100,0,0,100,0.00,40.00,0,-999,0,0.00
2013-3-13,60,45,31,-100,-100,-100,0,0,100,0.00,40.00,0,-999,0,0.00
2013-3-14,65,49,38,-100,-100,-100,0,0,100,0.00,40.00,0,-999,0,0.00
2013-3-15,64,48,33,-100,-100,-100,0,0,100,0.00,40.00,0,-999,0,0.00
2013-3-16,59,46,35,-100,-100,-100,0,0,100,0.00,40.00,0,-999,0,0.00
2013-3-17,59,45,34,-100,-100,-100,0,0,100,0.00,40.00,0,-999,0,0.00
2013-3-18,58,46,33,-100,-100,-100,0,0,100,0.00,40.00,0,-999,0,0.00
2013-3-19,56,47,35,-100,-100,-100,0,0,100,0.00,40.00,0,-999,0,0.00
2013-3-20,55,45,31,-100,-100,-100,0,0,100,0.00,40.00,0,-999,0,0.00
2013-3-21,60,49,35,-100,-100,-100,0,0,100,0.00,40.00,0,-999,0,0.00
2013-3-22,55,43,29,-100,-100,-100,0,0,100,0.00,40.00,0,-999,0,0.00
2013-3-23,44,37,29,-100,-100,-100,0,0,100,0.00,40.00,0,-999,0,0.00
2013-3-24,51,37,25,-100,-100,-100,0,0,100,0.00,40.00,0,-999,0,0.00
2013-3-25,58,43,28,-100,-100,-100,0,0,100,0.00,40.00,0,-999,0,0.00
2013-3-26,55,44,30,-100,-100,-100,0,0,100,0.00,40.00,0,-999,0,0.00
2013-3-27,56,44,29,-100,-100,-100,0,0,100,0.00,40.00,0,-999,0,0.00
2013-3-28,57,43,29,-100,-100,-100,0,0,100,0.00,40.00,0,-999,0,0.00
2013-3-29,61,46,31,-100,-100,-100,0,0,100,0.00,40.00,0,-999,0,0.00
2013-3-30,58,44,33,-100,-100,-100,0,0,100,0.00,40.00,0,-999,0,0.00
2013-3-31,59,45,31,-100,-100,-100,0,0,100,0.00,40.00,0,-999,0,0.00
2013-4-1,58,44,32,-100,-100,-100,0,0,100,0.00,40.00,0,-999,0,0.00
2013-4-2,54,41,28,-100,-100,-100,0,0,100,0.00,40.00,0,-999,0,0.00
2013-4-3,62,45,31,-100,-100,-100,0,0,100,0.00,40.00,0,-999,0,0.00
2013-4-4,62,46,29,-100,-100,-100,0,0,100,0.00,40.00,0,-999,0,0.00
2013-4-5,63,50,35,-100,-100,-100,0,0,100,0.00,40.00,0,-999,0,0.00
2013-4-6,62,47,35,-100,-100,-100,0,0,100,0.00,40.00,0,-999,0,0.00
2013-4-7,60,46,31,-100,-100,-100,0,0,100,0.00,40.00,0,-999,0,0.00
2013-4-8,45,40,33,-100,-100,-100,0,0,100,0.00,40.00,0,-999,0,0.01
2013-4-9,42,34,30,-100,-100,-100,0,0,100,0.00,40.00,0,-999,0,0.01
2013-4-10,46,35,29,-100,-100,-100,0,0,100,0.00,40.00,0,-999,0,0.00
2013-4-11,56,47,31,-100,-100,-100,0,0,100,0.00,40.00,0,-999,0,0.00
2013-4-12,59,45,29,-100,-100,-100,0,0,100,0.00,40.00,0,-999,0,0.00
2013-4-13,61,50,31,-100,-100,-100,0,0,100,0.00,40.00,0,-999,0,0.00
2013-4-14,60,50,37,-100,-100,-100,0,0,100,0.00,40.00,0,-999,0,0.00
2013-4-15,56,47,40,-100,-100,-100,0,0,100,0.00,40.00,0,-999,0,0.00
2013-4-16,50,44,34,-100,-100,-100,0,0,100,0.00,40.00,0,-999,0,0.00
2013-4-17,42,34,28,-100,-100,-100,0,0,100,0.00,40.00,0,-999,0,0.00
2013-4-18,48,36,22,-100,-100,-100,0,0,100,0.00,40.00,0,-999,0,0.00
2013-4-19,58,43,30,-100,-100,-100,0,0,100,0.00,40.00,0,-999,0,0.00
2013-4-20,62,46,29,-100,-100,-100,0,0,100,0.00,40.00,0,-999,0,0.00
2013-4-21,66,50,31,-100,-100,-100,0,0,100,0.00,40.00,0,-999,0,0.00
2013-4-22,67,53,35,-100,-100,-100,0,0,100,0.00,40.00,0,-999,0,0.00
2013-4-23,60,49,37,-100,-100,-100,0,0,100,0.00,40.00,0,-999,0,0.00
2013-4-24,62,54,40,-100,-100,-100,0,0,100,0.00,40.00,0,-999,0,0.00
2013-4-25,58,46,33,-100,-100,-100,0,0,100,0.00,40.00,0,-999,0,0.00
2013-4-26,63,49,30,-100,-100,-100,0,0,100,0.00,40.00,0,-999,0,0.00
2013-4-27,68,51,36,-100,-100,-100,0,0,100,0.00,40.00,0,-999,0,0.00
2013-4-28,71,53,33,-100,-100,-100,0,0,100,0.00,40.00,0,-999,0,0.00
2013-4-29,74,59,36,-100,-100,-100,0,0,100,0.00,40.00,0,-999,0,0.00
2013-4-30,69,58,44,-100,-100,-100,0,0,100,0.00,40.00,0,-999,0,0.00
2013-5-1,68,54,36,-100,-100,-100,0,0,100,0.00,40.00,0,-999,0,0.00
2013-5-2,57,47,37,-100,-100,-100,0,0,100,0.00,40.00,0,-999,0,0.01
2013-5-3,67,54,40,-100,-100,-100,0,0,100,0.00,40.00,0,-999,0,0.00
2013-5-4,66,50,30,-100,-100,-100,0,0,100,0.00,40.00,0,-999,0,0.00
2013-5-5,61,49,40,-100,-100,-100,0,0,100,0.00,40.00,0,-999,0,0.00
2013-5-6,54,46,39,-100,-100,-100,0,0,100,0.00,40.00,0,-999,0,0.01
2013-5-7,53,44,35,-100,-100,-100,0,0,100,0.00,40.00,0,-999,0,0.01
2013-5-8,54,44,30,-100,-100,-100,0,0,100,0.00,40.00,0,-999,0,0.00
2013-5-9,56,43,31,-100,-100,-100,0,0,100,0.00,40.00,0,-999,0,0.01
2013-5-10,62,48,37,-100,-100,-100,0,0,100,0.00,40.00,0,-999,0,0.01
2013-5-11,65,53,40,-100,-100,-100,0,0,100,0.00,40.00,0,-999,0,0.00
2013-5-12,71,55,38,-100,-100,-100,0,0,100,0.00,40.00,0,-999,0,0.00
2013-5-13,76,57,40,-100,-100,-100,0,0,100,0.00,40.00,0,-999,0,0.00
2013-5-14,74,58,41,-100,-100,-100,0,0,100,0.00,40.00,0,-999,0,0.59
2013-5-15,72,60,43,-100,-100,-100,0,0,100,0.00,40.00,0,-999,0,0.00
2013-5-16,70,59,40,-100,-100,-100,0,0,100,0.00,40.00,0,-999,0,0.00
2013-5-17,63,54,39,-100,-100,-100,0,0,100,0.00,40.00,0,-999,0,0.01
2013-5-18,63,53,39,-100,-100,-100,0,0,100,0.00,40.00,0,-999,0,0.00
2013-5-19,68,54,38,-100,-100,-100,0,0,100,0.00,40.00,0,-999,0,0.00
2013-5-20,62,52,37,-100,-100,-100,0,0,100,0.00,40.00,0,-999,0,0.00
2013-5-21,70,57,35,-100,-100,-100,0,0,100,0.00,40.00,0,-999,0,0.00
2013-5-22,71,57,39,-100,-100,-100,0,0,100,0.00,40.00,0,-999,0,0.89
2013-5-23,69,57,44,-100,-100,-100,0,0,100,0.00,40.00,0,-999,0,0.89
2013-5-24,69,55,36,-100,-100,-100,0,0,100,0.00,40.00,0,-999,0,0.00
2013-5-25,69,56,42,-100,-100,-100,0,0,100,0.00,40.00,0,-999,0,0.01
2013-5-26,67,56,40,-100,-100,-100,0,0,100,0.00,40.00,0,-999,0,0.00
2013-5-27,68,54,39,-100,-100,-100,0,0,100,0.00,40.00,0,-999,0,0.00
2013-5-28,66,53,35,-100,-100,-100,0,0,100,0.00,40.00,0,-999,0,0.00
2013-5-29,71,56,36,-100,-100,-100,0,0,100,0.00,40.00,0,-999,0,0.00
2013-5-30,72,59,43,-100,-100,-100,0,0,100,0.00,40.00,0,-999,0,0.00
2013-5-31,77,61,43,-100,-100,-100,0,0,100,0.00,40.00,0,-999,0,0.00
2013-6-1,78,65,51,-100,-100,-100,0,0,100,0.00,40.00,0,-999,0,0.00
2013-6-2,78,65,47,-100,-100,-100,0,0,100,0.00,40.00,0,-999,0,0.00
2013-6-3,76,62,45,-100,-100,-100,0,0,100,0.00,40.00,0,-999,0,0.00
2013-6-4,76,61,40,-100,-100,-100,0,0,100,0.00,40.00,0,-999,0,0.00
2013-6-5,80,62,42,-100,-100,-100,0,0,100,0.00,40.00,0,-999,0,0.00
2013-6-6,81,66,48,-100,-100,-100,0,0,100,0.00,40.00,0,-999,0,0.00
2013-6-7,83,65,49,-100,-100,-100,0,0,100,0.00,40.00,0,-999,0,0.00
2013-6-8,87,69,46,-100,-100,-100,0,0,100,0.00,40.00,0,-999,0,0.00
2013-6-9,87,69,48,-100,-100,-100,0,0,100,0.00,40.00,0,-999,0,0.00
2013-6-10,82,67,49,-100,-100,-100,0,0,100,0.00,40.00,0,-999,0,0.00
2013-6-11,82,68,49,-100,-100,-100,0,0,100,0.00,40.00,0,-999,0,0.00
2013-6-12,84,70,49,-100,-100,-100,0,0,100,0.00,40.00,0,-999,0,0.00
2013-6-13,81,65,48,-100,-100,-100,0,0,100,0.00,40.00,0,-999,0,0.00
2013-6-14,80,65,45,-100,-100,-100,0,0,100,0.00,40.00,0,-999,0,0.00
2013-6-15,77,64,47,-100,-100,-100,0,0,100,0.00,40.00,0,-999,0,0.01
2013-6-16,80,64,45,-100,-100,-100,0,0,100,0.00,40.00,0,-999,0,0.00
2013-6-17,79,65,43,-100,-100,-100,0,0,100,0.00,40.00,0,-999,0,0.00
2013-6-18,81,66,39,-100,-100,-100,0,0,100,0.00,40.00,0,-999,0,0.00
2013-6-19,78,64,44,-100,-100,-100,0,0,100,0.00,40.00,0,-999,0,0.00
2013-6-20,74,59,45,-100,-100,-100,0,0,100,0.00,40.00,0,-999,0,0.00
2013-6-22,76,67,47,-100,-100,-100,0,0,100,0.00,40.00,0,-999,0,0.00
2013-6-23,76,61,40,-100,-100,-100,0,0,100,0.00,40.00,0,-999,0,0.00
2013-6-24,73,62,49,-100,-100,-100,0,0,100,0.00,40.00,0,-999,0,0.00
2013-6-25,77,60,44,-100,-100,-100,0,0,100,0.00,40.00,0,-999,0,0.00
2013-6-26,81,65,44,-100,-100,-100,0,0,100,0.00,40.00,0,-999,0,0.00
2013-6-27,89,70,47,-100,-100,-100,0,0,100,0.00,40.00,0,-999,0,0.00
2013-6-28,90,78,60,-100,-100,-100,0,0,100,0.00,40.00,0,-999,0,0.01
2013-6-29,88,75,58,-100,-100,-100,0,0,100,0.00,40.00,0,-999,0,0.00
2013-6-30,87,73,58,-100,-100,-100,0,0,100,0.00,40.00,0,-999,0,0.01
2013-7-1,85,71,56,-100,-100,-100,0,0,100,0.00,40.00,0,-999,0,0.00
2013-7-2,82,64,55,-100,-100,-100,0,0,100,0.00,40.00,0,-999,0,0.04
2013-7-3,76,63,51,-100,-100,-100,0,0,100,0.00,40.00,0,-999,0,0.01
2013-7-4,83,71,58,-100,-100,-100,0,0,100,0.00,40.00,0,-999,0,0.01
2013-7-5,76,67,58,-100,-100,-100,0,0,100,0.00,40.00,0,-999,0,0.00
2013-7-6,77,63,55,-100,-100,-100,0,0,100,0.00,40.00,0,-999,0,0.00
2013-7-7,81,68,52,-100,-100,-100,0,0,100,0.00,40.00,0,-999,0,0.00
2013-7-8,84,67,53,-100,-100,-100,0,0,100,0.00,40.00,0,-999,0,0.00
2013-7-9,86,69,55,-100,-100,-100,0,0,100,0.00,40.00,0,-999,0,0.00
2013-7-10,81,64,57,-100,-100,-100,0,0,100,0.00,40.00,0,-999,0,0.04
2013-7-11,70,62,55,-100,-100,-100,0,0,100,0.00,40.00,0,-999,0,0.01
2013-7-12,69,58,51,-100,-100,-100,0,0,100,0.00,40.00,0,-999,0,0.01
2013-7-13,75,64,51,-100,-100,-100,0,0,100,0.00,40.00,0,-999,0,0.01
2013-7-14,77,64,54,-100,-100,-100,0,0,100,0.00,40.00,0,-999,0,0.01
2013-7-15,76,64,54,-100,-100,-100,0,0,100,0.00,40.00,0,-999,0,0.00
2013-7-16,68,61,57,-100,-100,-100,0,0,100,0.00,40.00,0,-999,0,0.01
2013-7-17,71,60,52,-100,-100,-100,0,0,100,0.00,40.00,0,-999,0,0.01
2013-7-18,74,64,53,-100,-100,-100,0,0,100,0.00,40.00,0,-999,0,0.01
2013-7-19,74,63,54,-100,-100,-100,0,0,100,0.00,40.00,0,-999,0,0.01
2013-7-20,73,62,55,-100,-100,-100,0,0,100,0.00,40.00,0,-999,0,0.04
2013-7-21,68,61,55,-100,-100,-100,0,0,100,0.00,40.00,0,-999,0,0.03
2013-7-22,67,60,54,-100,-100,-100,0,0,100,0.00,40.00,0,-999,0,0.05
2013-7-23,72,62,54,-100,-100,-100,0,0,100,0.00,40.00,0,-999,0,0.01
2013-7-24,75,65,52,-100,-100,-100,0,0,100,0.00,40.00,0,-999,0,0.00
2013-7-25,74,61,56,-100,-100,-100,0,0,100,0.00,40.00,0,-999,0,0.02
2013-7-26,72,62,55,-100,-100,-100,0,0,100,0.00,40.00,0,-999,0,0.01
2013-7-27,73,61,54,-100,-100,-100,0,0,100,0.00,40.00,0,-999,0,0.04
2013-7-28,73,60,52,-100,-100,-100,0,0,100,0.00,40.00,0,-999,0,0.04
2013-7-29,73,61,51,-100,-100,-100,0,0,100,0.00,40.00,0,-999,0,0.02
2013-7-30,75,63,48,-100,-100,-100,0,0,100,0.00,40.00,0,-999,0,0.00
2013-7-31,78,68,53,-100,-100,-100,0,0,100,0.00,40.00,0,-999,0,0.00
2013-8-1,70,61,55,-100,-100,-100,0,0,100,0.00,40.00,0,-999,0,0.01
2013-8-2,76,64,53,-100,-100,-100,0,0,100,0.00,40.00,0,-999,0,0.01
2013-8-3,77,64,54,-100,-100,-100,0,0,100,0.00,40.00,0,-999,0,0.00
2013-8-4,75,64,54,-100,-100,-100,0,0,100,0.00,40.00,0,-999,0,0.01
2013-8-5,75,62,50,-100,-100,-100,0,0,100,0.00,40.00,0,-999,0,0.00
2013-8-6,60,57,54,-100,-100,-100,0,0,100,0.00,40.00,0,-999,0,0.01
2013-8-7,72,61,53,-100,-100,-100,0,0,100,0.00,40.00,0,-999,0,0.00
2013-8-8,75,60,45,-100,-100,-100,0,0,100,0.00,40.00,0,-999,0,0.00
2013-8-9,75,60,43,-100,-100,-100,0,0,100,0.00,40.00,0,-999,0,0.00
2013-8-10,77,62,47,-100,-100,-100,0,0,100,0.00,40.00,0,-999,0,0.00
2013-8-11,75,63,51,-100,-100,-100,0,0,100,0.00,40.00,0,-999,0,0.00
2013-8-12,78,65,50,-100,-100,-100,0,0,100,0.00,40.00,0,-999,0,0.00
2013-8-13,79,62,47,-100,-100,-100,0,0,100,0.00,40.00,0,-999,0,0.00
2013-8-14,80,63,47,-100,-100,-100,0,0,100,0.00,40.00,0,-999,0,0.00
2013-8-15,74,64,56,-100,-100,-100,0,0,100,0.00,40.00,0,-999,0,0.01
2013-8-16,84,67,54,-100,-100,-100,0,0,100,0.00,40.00,0,-999,0,0.00
2013-8-17,82,67,55,-100,-100,-100,0,0,100,0.00,40.00,0,-999,0,0.02
2013-8-18,84,64,52,-100,-100,-100,0,0,100,0.00,40.00,0,-999,0,0.02
2013-8-19,75,62,54,-100,-100,-100,0,0,100,0.00,40.00,0,-999,0,0.01
2013-8-20,75,59,49,-100,-100,-100,0,0,100,0.00,40.00,0,-999,0,0.00
2013-8-21,72,64,57,-100,-100,-100,0,0,100,0.00,40.00,0,-999,0,0.01
2013-8-22,75,63,55,-100,-100,-100,0,0,100,0.00,40.00,0,-999,0,0.01
2013-8-23,76,64,52,-100,-100,-100,0,0,100,0.00,40.00,0,-999,0,0.01
2013-8-24,71,60,54,-100,-100,-100,0,0,100,0.00,40.00,0,-999,0,0.01
2013-8-25,63,58,54,-100,-100,-100,0,0,100,0.00,40.00,0,-999,0,0.02
2013-8-26,73,62,56,-100,-100,-100,0,0,100,0.00,40.00,0,-999,0,0.02
2013-8-27,74,63,55,-100,-100,-100,0,0,100,0.00,40.00,0,-999,0,0.02
2013-8-28,77,69,56,-100,-100,-100,0,0,100,0.00,40.00,0,-999,0,0.00
2013-8-29,74,62,53,-100,-100,-100,0,0,100,0.00,40.00,0,-999,0,0.01
2013-8-30,64,60,58,-100,-100,-100,0,0,100,0.00,40.00,0,-999,0,0.03
2013-8-31,70,61,55,-100,-100,-100,0,0,100,0.00,40.00,0,-999,0,0.01
2013-9-1,77,63,52,-100,-100,-100,0,0,100,0.00,40.00,0,-999,0,0.01
2013-9-2,78,65,52,-100,-100,-100,0,0,100,0.00,40.00,0,-999,0,0.01
2013-9-3,81,67,56,-100,-100,-100,0,0,100,0.00,40.00,0,-999,0,0.01
2013-9-4,80,67,57,-100,-100,-100,0,0,100,0.00,40.00,0,-999,0,0.00
2013-9-5,79,67,54,-100,-100,-100,0,0,100,0.00,40.00,0,-999,0,0.00
2013-9-6,79,65,53,-100,-100,-100,0,0,100,0.00,40.00,0,-999,0,0.00
2013-9-7,75,64,56,-100,-100,-100,0,0,100,0.00,40.00,0,-999,0,0.01
2013-9-8,64,60,56,-100,-100,-100,0,0,100,0.00,40.00,0,-999,0,0.02
2013-9-9,61,58,55,-100,-100,-100,0,0,100,0.00,40.00,0,-999,0,0.04
2013-9-10,64,58,53,-100,-100,-100,0,0,100,0.00,40.00,0,-999,0,0.01
2013-9-11,67,59,51,-100,-100,-100,0,0,100,0.00,40.00,0,-999,0,0.03
2013-9-12,71,58,46,-100,-100,-100,0,0,100,0.00,40.00,0,-999,0,0.00
2013-9-13,74,60,50,-100,-100,-100,0,0,100,0.00,40.00,0,-999,0,0.00
2013-9-14,74,60,48,-100,-100,-100,0,0,100,0.00,40.00,0,-999,0,0.01
2013-9-15,73,59,47,-100,-100,-100,0,0,100,0.00,40.00,0,-999,0,0.00
2013-9-16,77,62,50,-100,-100,-100,0,0,100,0.00,40.00,0,-999,0,0.00
2013-9-17,76,62,49,-100,-100,-100,0,0,100,0.00,40.00,0,-999,0,0.00
2013-9-18,54,51,50,-100,-100,-100,0,0,100,0.00,40.00,0,-999,0,0.01
2013-9-19,74,59,43,-100,-100,-100,0,0,100,0.00,40.00,0,-999,0,0.00
2013-9-20,75,61,45,-100,-100,-100,0,0,100,0.00,40.00,0,-999,0,0.00
2013-9-22,64,56,40,-100,-100,-100,0,0,100,0.00,40.00,0,-999,0,0.00
2013-9-23,71,59,45,-100,-100,-100,0,0,100,0.00,40.00,0,-999,0,0.00
2013-9-24,70,56,39,-100,-100,-100,0,0,100,0.00,40.00,0,-999,0,0.00
2013-9-25,65,55,44,-100,-100,-100,0,0,100,0.00,40.00,0,-999,0,0.00
2013-9-26,60,53,40,-100,-100,-100,0,0,100,0.00,40.00,0,-999,0,0.01
2013-9-27,54,44,36,-100,-100,-100,0,0,100,0.00,40.00,0,-999,0,0.01
2013-9-28,61,50,42,-100,-100,-100,0,0,100,0.00,40.00,0,-999,0,0.00
2013-10-2,64,53,35,-100,-100,-100,0,0,100,0.00,40.00,0,-999,0,0.00
2013-10-3,61,53,41,-100,-100,-100,0,0,100,0.00,40.00,0,-999,0,0.00
2013-10-4,57,47,37,-100,-100,-100,0,0,100,0.00,40.00,0,-999,0,0.00
2013-10-5,55,44,35,-100,-100,-100,0,0,100,0.00,40.00,0,-999,0,0.00
2013-10-6,66,54,38,-100,-100,-100,0,0,100,0.00,40.00,0,-999,0,0.00
2013-10-7,65,58,46,-100,-100,-100,0,0,100,0.00,40.00,0,-999,0,0.00
2013-10-8,62,51,39,-100,-100,-100,0,0,100,0.00,40.00,0,-999,0,0.00
2013-10-9,55,49,45,-100,-100,-100,0,0,100,0.00,40.00,0,-999,0,0.00
2013-10-10,42,36,32,-100,-100,-100,0,0,100,0.00,40.00,0,-999,0,0.02
2013-10-11,52,40,30,-100,-100,-100,0,0,100,0.00,40.00,0,-999,0,0.01
2013-10-12,57,43,32,-100,-100,-100,0,0,100,0.00,40.00,0,-999,0,0.00
2013-10-13,55,45,34,-100,-100,-100,0,0,100,0.00,40.00,0,-999,0,0.00
2013-10-21,50,50,50,-100,-100,-100,0,0,100,0.00,40.00,0,-999,0,0.00
2013-10-22,63,50,40,-100,-100,-100,0,0,100,0.00,40.00,0,-999,0,0.00
2013-10-23,57,43,36,-100,-100,-100,0,0,100,0.00,40.00,0,-999,0,0.00
2013-10-24,61,55,40,-100,-100,-100,0,0,100,0.00,40.00,0,-999,0,0.00
2013-10-25,45,37,31,-100,-100,-100,0,0,100,0.00,40.00,0,-999,0,0.00
2013-10-26,48,48,48,-100,-100,-100,0,0,100,0.00,40.00,0,-999,0,0.00
2013-10-27,59,49,40,-100,-100,-100,0,0,100,0.00,40.00,0,-999,0,0.00
2013-11-12,61,52,43,-100,-100,-100,0,0,100,0.00,40.00,0,-999,0,0.00
2013-11-13,57,53,47,-100,-100,-100,0,0,100,0.00,40.00,0,-999,0,0.00
2013-11-14,56,44,36,-100,-100,-100,0,0,100,0.00,40.00,0,-999,0,0.00
2013-11-15,47,47,47,-100,-100,-100,0,0,100,0.00,40.00,0,-999,0,0.00
2013-11-16,40,40,39,-100,-100,-100,0,0,100,0.00,40.00,0,-999,0,0.00
2013-11-17,47,42,38,-100,-100,-100,0,0,100,0.00,40.00,0,-999,0,0.00
2013-11-18,52,34,26,-100,-100,-100,0,0,100,0.00,40.00,0,-999,0,0.00
2013-11-19,50,41,29,-100,-100,-100,0,0,100,0.00,40.00,0,-999,0,0.01
2013-11-20,41,38,35,-100,-100,-100,0,0,100,0.00,40.00,0,-999,0,0.01
2013-11-21,41,41,40,-100,-100,-100,0,0,100,0.00,40.00,0,-999,0,0.01
2013-11-22,36,35,34,-100,-100,-100,0,0,100,0.00,40.00,0,-999,0,0.00
2013-11-23,36,34,32,-100,-100,-100,0,0,100,0.00,40.00,0,-999,0,0.03
2013-11-24,37,32,27,-100,-100,-100,0,0,100,0.00,40.00,0,-999,0,0.01
2013-11-25,31,29,27,-100,-100,-100,0,0,100,0.00,40.00,0,-999,0,0.00
2013-11-26,44,39,35,-100,-100,-100,0,0,100,0.00,40.00,0,-999,0,0.00
2013-11-27,42,34,31,-100,-100,-100,0,0,100,0.00,40.00,0,-999,0,0.00
2013-11-28,46,36,28,-100,-100,-100,0,0,100,0.00,40.00,0,-999,0,0.00
2013-11-29,47,35,24,-100,-100,-100,0,0,100,0.00,40.00,0,-999,0,0.00
2013-11-30,49,36,27,-100,-100,-100,0,0,100,0.00,40.00,0,-999,0,0.00
2013-12-1,47,36,27,-100,-100,-100,0,0,100,0.00,40.00,0,-999,0,0.00
2013-12-2,54,49,37,-100,-100,-100,0,0,100,0.00,40.00,0,-999,0,0.00
2013-12-3,44,40,37,-100,-100,-100,0,0,100,0.00,40.00,0,-999,0,0.00
2013-12-4,38,31,22,-100,-100,-100,0,0,100,0.00,40.00,0,-999,0,0.01
2013-12-5,27,24,20,-100,-100,-100,0,0,100,0.00,40.00,0,-999,0,0.00
2013-12-6,29,13,1,-100,-100,-100,0,0,100,0.00,40.00,0,-999,0,0.00
2013-12-7,27,21,14,-100,-100,-100,0,0,100,0.00,40.00,0,-999,0,0.02
2013-12-8,28,26,24,-100,-100,-100,0,0,100,0.00,40.00,0,-999,0,0.04
2013-12-11,38,36,31,-100,-100,-100,0,0,100,0.00,40.00,0,-999,0,0.00
2013-12-12,34,32,29,-100,-100,-100,0,0,100,0.00,40.00,0,-999,0,0.00
2013-12-13,44,35,22,-100,-100,-100,0,0,100,0.00,40.00,0,-999,0,0.00
2013-12-14,38,33,27,-100,-100,-100,0,0,100,0.00,40.00,0,-999,0,0.00
2013-12-15,47,47,47,-100,-100,-100,0,0,100,0.00,40.00,0,-999,0,0.00
2013-12-16,53,47,40,-100,-100,-100,0,0,100,0.00,40.00,0,-999,0,0.00
2013-12-17,42,40,38,-100,-100,-100,0,0,100,0.00,40.00,0,-999,0,0.00
2013-12-18,39,33,29,-100,-100,-100,0,0,100,0.00,40.00,0,-999,0,0.00
2013-12-19,40,36,32,-100,-100,-100,0,0,100,0.00,40.00,0,-999,0,0.02
2013-12-22,42,28,12,-100,-100,-100,0,0,100,0.00,40.00,0,-999,0,0.00
2013-12-23,42,30,21,-100,-100,-100,0,0,100,0.00,40.00,0,-999,0,0.00
2013-12-24,52,39,29,-100,-100,-100,0,0,100,0.00,40.00,0,-999,0,0.00
2013-12-25,42,41,39,-100,-100,-100,0,0,100,0.00,40.00,0,-999,0,0.00
2013-12-26,48,41,35,-100,-100,-100,0,0,100,0.00,40.00,0,-999,0,0.00
2013-12-27,47,42,34,-100,-100,-100,0,0,100,0.00,40.00,0,-999,0,0.00
2013-12-28,42,32,21,-100,-100,-100,0,0,100,0.00,40.00,0,-999,0,0.00
2013-12-29,37,32,29,-100,-100,-100,0,0,100,0.00,40.00,0,-999,0,0.00
2013-12-30,41,35,24,-100,-100,-100,0,0,100,0.00,40.00,0,-999,0,0.00
2013-12-31,48,32,20,-100,-100,-100,0,0,100,0.00,40.00,0,-999,0,0.00
2014-1-1,50,36,25,-100,-100,-100,0,0,100,0.00,40.00,0,-999,0,0.00
2014-1-2,53,40,35,-100,-100,-100,0,0,100,0.00,40.00,0,-999,0,0.00